{"data":{"norad_id":40315,"epoch":"2026-09-18T16:23:57.211584Z","epoch_age_seconds":171392,"freshness":"FRESH","line1":"1 40315U 14075A   26261.68330106 -.00000007  00000+0  00000+0 0  9990","line2":"2 40315  63.6167 187.1376 0021997 209.8790 150.0114  2.13101498 91843","mean_motion":2.13101498,"eccentricity":0.0021997,"inclination_deg":63.6167,"raan_deg":187.1376,"arg_perigee_deg":209.879,"mean_anomaly_deg":150.0114,"bstar":0,"rev_number":9184,"period_min":675.73433951178,"perigee_km":19073.817397311,"apogee_km":19186.037576214,"semimajor_km":25508.064486762,"source":"CELESTRAK","updated_at":"2026-09-20T09:00:46.276615Z"}}